Danbury, CT

9:40 PM EDT on March 22, 2017 (GMT -0400)
Danbury Municipal

Weather History for KDXR - October, 2013

Change the Weather History Date:

Monday, October 21, 2013

  Actual Average Record
Temperature  
Mean Temperature 49 °F -  
Max Temperature 64 °F 61 °F 78 °F (1979)
Min Temperature 34 °F 37 °F 20 °F (1972)
Degree Days  
Heating Degree Days 16    
Moisture  
Dew Point 35 °F    
Average Humidity 62    
Maximum Humidity 92    
Minimum Humidity 31    
Precipitation  
Precipitation 0.00 in - - ()
Sea Level Pressure  
Sea Level Pressure 30.08 in    
Wind  
Wind Speed 3 mph (SSW)    
Max Wind Speed 10 mph    
Max Gust Speed 18 mph    
Visibility 10 miles    
Events      
Averages and records for this station are not official NWS values.
T = Trace of Precipitation, MM = Missing Value Source: NWS Daily Summary

Daily Weather History Graph

Daily Weather History Graph

Search for Another Location

Airport or City:

Trip Planner

Search our weather history database for the weather conditions in past years. The results will help you decide how hot, cold, wet, or windy it might be!

Date:

Astronomy

Oct. 21, 2013 Rise Set
Actual Time 7:12 AM EDT 6:03 PM EDT
Civil Twilight 6:44 AM EDT 6:31 PM EDT
Nautical Twilight 6:12 AM EDT 7:03 PM EDT
Astronomical Twilight 5:40 AM EDT 7:35 PM EDT
Moon 7:52 PM EDT (10/21) 9:46 AM EDT (10/21)
Length of Visible Light 11h 47m
Length of Day
10h 50m
Waning Gibbous, 93% of the Moon is Illuminated
Oct 21
Waning Gibbous
Oct 26
Last Quarter
Nov 3
New
Nov 10
First Quarter
Nov 17
Full

Hourly Weather History & Observations

Time (EDT) Temp. Dew Point Humidity Pressure Visibility Wind Dir Wind Speed Gust Speed Precip Events Conditions
12:53 AM 37.0 °F 33.1 °F 86% 30.08 in 10.0 mi Calm Calm - N/A   Clear
1:53 AM 36.0 °F 32.0 °F 86% 30.09 in 10.0 mi Calm Calm - N/A   Clear
2:53 AM 36.0 °F 32.0 °F 86% 30.10 in 10.0 mi Calm Calm - N/A   Clear
3:53 AM 34.0 °F 30.9 °F 89% 30.10 in 10.0 mi Calm Calm - N/A   Clear
4:53 AM 34.0 °F 30.9 °F 89% 30.11 in 10.0 mi Calm Calm - N/A   Clear
5:53 AM 34.0 °F 30.0 °F 85% 30.12 in 10.0 mi Calm Calm - N/A   Clear
6:53 AM 35.1 °F 32.0 °F 89% 30.14 in 9.0 mi Calm Calm - N/A   Clear
7:53 AM 34.0 °F 32.0 °F 92% 30.16 in 7.0 mi Calm Calm - N/A   Clear
8:53 AM 44.1 °F 37.9 °F 79% 30.17 in 10.0 mi Calm Calm - N/A   Clear
9:53 AM 55.0 °F 39.0 °F 55% 30.15 in 10.0 mi WSW 6.9 mph - N/A   Clear
10:53 AM 59.0 °F 37.0 °F 44% 30.14 in 10.0 mi SW 5.8 mph - N/A   Clear
11:53 AM 61.0 °F 36.0 °F 39% 30.12 in 10.0 mi SW 10.4 mph - N/A   Clear
12:53 PM 62.1 °F 36.0 °F 38% 30.10 in 10.0 mi SW 8.1 mph 17.3 mph N/A   Clear
1:53 PM 63.0 °F 34.0 °F 34% 30.08 in 10.0 mi SSW 10.4 mph - N/A   Clear
2:53 PM 64.0 °F 33.1 °F 31% 30.06 in 10.0 mi SW 8.1 mph - N/A   Clear
3:53 PM 64.0 °F 33.1 °F 31% 30.04 in 10.0 mi WSW 9.2 mph - N/A   Clear
4:53 PM 63.0 °F 33.1 °F 33% 30.03 in 10.0 mi SSE 6.9 mph - N/A   Clear
5:53 PM 59.0 °F 34.0 °F 39% 30.04 in 10.0 mi South 5.8 mph - N/A   Clear
6:53 PM 57.0 °F 37.0 °F 47% 30.05 in 10.0 mi South 8.1 mph - N/A   Clear
7:53 PM 55.0 °F 39.9 °F 57% 30.05 in 10.0 mi SSE 8.1 mph - N/A   Clear
8:53 PM 54.0 °F 39.9 °F 59% 30.04 in 10.0 mi SSE 6.9 mph - N/A   Clear
9:53 PM 51.1 °F 41.0 °F 68% 30.03 in 10.0 mi SSE 4.6 mph - N/A   Clear
10:53 PM 53.1 °F 43.0 °F 69% 30.01 in 10.0 mi South 6.9 mph - N/A   Clear
11:53 PM 54.0 °F 43.0 °F 66% 29.99 in 10.0 mi South 9.2 mph 18.4 mph N/A   Clear